Location: Chevoux
(46.3801°N, 4.9476°E)
Time: 22:11:02
(UTC+00:00)

Cosmos 2278 Rocket - Pass Details

Date: 28 January 2021
Orbit: 840 x 847 km, 71.0° (Epoch: 04 March)

Event Time Altitude Azimuth Distance (km) Brightness Sun altitude
Rises 19:49:07 0° 248° (WSW) 3,398 6.1 -32.8°
Reaches altitude 10° 19:52:05 10° 263° (W) 2,467 5.4 -33.3°
Maximum altitude 19:56:29 23° 314° (NW) 1,740 4.2 -34.0°
Enters shadow 19:59:05 17° 350° (N) 2,025 4.3 -34.5°
